This demonstration page uses our WeatherBlox Daily Observations layout. Learn more.

Left ArrowRight Arrow

47.50024, -111.30081

Hourly Observations for April 22, 2018

Temp ( °F °C ) Dew Point ( °F °C ) Humidity (%) Winds ( mph kmh ) Pressure ( in mb ) Visibility ( mi km ) Precip ( " mm )
12:53 am 00:53 Clear 41 5 24 -4.4 51 51 Calm 30.14 1021 10 16 0.00 0.00
1:53 am 01:53 Clear 41 5 24 -4.4 51 51 Calm 30.13 1020 10 16 0.00 0.00
2:53 am 02:53 Clear 40 4.4 24 -4.4 53 53 WSW 6 9 30.14 1021 10 16 0.00 0.00
3:53 am 03:53 Clear 37 2.8 25 -3.9 62 62 WSW 10 17 30.15 1021 10 16 0.00 0.00
4:53 am 04:53 Clear 37 2.8 23 -5 57 57 WSW 10 17 30.16 1021 10 16 0.00 0.00
5:53 am 05:53 Clear 35 1.7 23 -5 61 61 SW 6 9 30.17 1022 10 16 0.00 0.00
6:53 am 06:53 Sunny 38 3.3 23 -5 55 55 SW 12 19 30.17 1022 10 16 0.00 0.00
7:53 am 07:53 Sunny 40 4.4 24 -4.4 53 53 Calm 30.20 1023 10 16 0.00 0.00
8:53 am 08:53 Sunny 43 6.1 24 -4.4 47 47 NNW 7 11 30.21 1023 10 16 0.00 0.00
9:53 am 09:53 Sunny 48 8.9 23 -5 37 37 NNW 10 17 30.20 1023 10 16 0.00 0.00
10:53 am 10:53 Sunny 52 11.1 19 -7.2 27 27 NW 8 13 30.18 1022 10 16 0.00 0.00
11:53 am 11:53 Sunny 51 10.6 18 -7.8 27 27 NW 12 19 30.19 1022 10 16 0.00 0.00
12:53 pm 12:53 Sunny 53 11.7 17 -8.3 24 24 W 13 20 30.16 1022 10 16 0.00 0.00
1:53 pm 13:53 Sunny 54 12.2 15 -9.4 21 21 SW 6 9 30.15 1021 10 16 0.00 0.00
2:53 pm 14:53 Sunny 57 13.9 15 -9.4 19 19 W 10 17 30.13 1020 10 16 0.00 0.00
3:53 pm 15:53 Sunny 57 13.9 14 -10 18 18 NNW 13 20 30.14 1021 10 16 0.00 0.00
4:53 pm 16:53 Sunny 58 14.4 15 -9.4 18 18 N 9 15 30.13 1020 10 16 0.00 0.00
5:53 pm 17:53 Sunny 57 13.9 17 -8.3 21 21 NNE 10 17 30.14 1021 10 16 0.00 0.00
6:53 pm 18:53 Sunny 53 11.7 16 -8.9 23 23 NNE 16 26 30.15 1021 10 16 0.00 0.00
7:53 pm 19:53 Sunny 50 10 19 -7.2 29 29 NNE 13 20 30.18 1022 10 16 0.00 0.00
8:53 pm 20:53 Mostly Cloudy 46 7.8 21 -6.1 37 37 NNE 12 19 30.21 1023 10 16 0.00 0.00
9:53 pm 21:53 Partly Cloudy 45 7.2 22 -5.6 40 40 NNE 12 19 30.23 1024 10 16 0.00 0.00
10:53 pm 22:53 Partly Cloudy 44 6.7 24 -4.4 45 45 NE 14 22 30.24 1024 10 16 0.00 0.00
11:53 pm 23:53 Clear 42 5.6 25 -3.9 51 51 NE 16 26 30.26 1025 10 16 0.00 0.00

Powered by AerisWeather